Dades meteomassalio
Diari Summary for Juliol 9, 2017 Units:  English    Metric   Both
« Previous Day
Next Day »
Diari Semanal Mensual Anual Personalitzat
  Maxima: Minima: Mijana:
Temperatura: TemperatureC °F 17.5 °F 23.9 °F
Rosada: DewpointC °F 14.2 °F 16.2 °F
Humitat: Humidity % 36 % 65 %
Velocitat del vent: WindSpeedKMH mph 0.0 mph 7.6 mph
Racha vent: WindSpeedGustKMH mph - -
Vent:- - WNW
Pressio: PressurehPa in 1010.7 in -
Pluja: 0.0 in    
Historical Graphs
 
 
Tabular Data for Juliol 9, 2017
Time Temperature Dew Point Pressure Wind Wind Speed Wind Gust Humidity Rainfall Rate (Hourly) solar Conditions
TemperatureC °F DewpointC °F PressurehPa in Calm     Humidity % HourlyPrecipMM in SolarRadiationWatts/m^2 W/m2 Conditions
00:03 19.0 °F 17.3 °F 1012.8 in Calm     90 % 0.0 in 0.0 W/m2 RA
00:08 18.9 °F 17.2 °F 1013.1 in Calm     90 % 0.0 in 0.0 W/m2 CLR
00:09 18.9 °F 17.2 °F 1013.1 in Calm     90 % 0.0 in 0.0 W/m2 CLR
00:14 18.8 °F 17.2 °F 1013.1 in Calm     90 % 0.0 in 0.0 W/m2 CLR
00:19 18.7 °F 17.1 °F 1013.1 in Calm     90 % 0.0 in 0.0 W/m2 CLR
00:24 18.6 °F 16.9 °F 1013.1 in Calm     90 % 0.0 in 0.0 W/m2 CLR
00:29 18.6 °F 17.1 °F 1013.1 in Calm     91 % 0.0 in 0.0 W/m2 CLR
00:34 18.6 °F 17.1 °F 1013.1 in Calm     91 % 0.0 in 0.0 W/m2 CLR
00:39 18.5 °F 17.0 °F 1013.4 in Calm     91 % 0.0 in 0.0 W/m2 CLR
00:45 18.5 °F 17.0 °F 1013.4 in Calm     91 % 0.0 in 0.0 W/m2 CLR
00:50 18.4 °F 16.9 °F 1013.4 in Calm     91 % 0.0 in 0.0 W/m2 CLR
00:55 18.4 °F 17.1 °F 1013.1 in Calm     92 % 0.0 in 0.0 W/m2 CLR
01:00 18.3 °F 16.8 °F 1013.4 in Calm     91 % 0.0 in 0.0 W/m2 CLR
01:05 18.2 °F 16.7 °F 1013.4 in Calm     91 % 0.0 in 0.0 W/m2 CLR
01:10 18.1 °F 16.8 °F 1013.4 in Calm     92 % 0.0 in 0.0 W/m2 CLR
01:15 18.1 °F 16.7 °F 1013.4 in Calm     92 % 0.0 in 0.0 W/m2 CLR
01:20 18.0 °F 16.7 °F 1013.4 in Calm     92 % 0.0 in 0.0 W/m2 CLR
01:25 18.0 °F 16.7 °F 1013.4 in Calm     92 % 0.0 in 0.0 W/m2 CLR
01:30 18.0 °F 16.7 °F 1013.4 in Calm     92 % 0.0 in 0.0 W/m2 CLR
01:35 18.0 °F 16.7 °F 1013.4 in Calm     92 % 0.0 in 0.0 W/m2 CLR
01:40 18.1 °F 16.7 °F 1013.4 in Calm     92 % 0.0 in 0.0 W/m2 CLR
01:45 18.1 °F 16.7 °F 1013.4 in Calm     92 % 0.0 in 0.0 W/m2 CLR
01:50 18.0 °F 16.5 °F 1013.4 in Calm     91 % 0.0 in 0.0 W/m2 CLR
01:55 18.1 °F 16.6 °F 1013.4 in Calm     91 % 0.0 in 0.0 W/m2 CLR
02:00 18.3 °F 16.7 °F 1013.4 in Calm     90 % 0.0 in 0.0 W/m2 CLR
02:05 18.7 °F 16.6 °F 1013.4 in West 7.4 mph 7.4 mph 88 % 0.0 in 0.0 W/m2 CLR
02:10 18.9 °F 16.5 °F 1013.4 in WNW 9.3 mph 9.3 mph 86 % 0.0 in 0.0 W/m2 CLR
02:15 19.0 °F 16.4 °F 1013.4 in West 9.3 mph 9.3 mph 85 % 0.0 in 0.0 W/m2 CLR
02:20 19.1 °F 16.3 °F 1013.4 in West 6.4 mph 6.4 mph 84 % 0.0 in 0.0 W/m2 CLR
02:25 19.1 °F 16.3 °F 1013.4 in West 8.0 mph 8.0 mph 84 % 0.0 in 0.0 W/m2 CLR
02:30 19.1 °F 16.3 °F 1013.4 in Calm     84 % 0.0 in 0.0 W/m2 CLR
02:35 19.1 °F 16.3 °F 1013.4 in West 5.6 mph 5.6 mph 84 % 0.0 in 0.0 W/m2 CLR
02:40 19.1 °F 16.1 °F 1013.8 in Calm     83 % 0.0 in 0.0 W/m2 CLR
02:45 19.1 °F 16.2 °F 1013.4 in Calm     83 % 0.0 in 0.0 W/m2 CLR
02:50 19.1 °F 16.1 °F 1013.8 in Calm     83 % 0.0 in 0.0 W/m2 CLR
02:55 19.0 °F 16.2 °F 1013.4 in West 5.6 mph 5.6 mph 84 % 0.0 in 0.0 W/m2 CLR
03:00 19.0 °F 16.2 °F 1013.4 in Calm     84 % 0.0 in 0.0 W/m2 CLR
03:05 18.9 °F 16.1 °F 1013.4 in WNW 3.7 mph   84 % 0.0 in 0.0 W/m2 CLR
03:10 18.8 °F 16.1 °F 1013.8 in West 4.8 mph   84 % 0.0 in 0.0 W/m2 CLR
03:15 18.8 °F 16.1 °F 1013.8 in West 9.3 mph 9.3 mph 84 % 0.0 in 0.0 W/m2 CLR
03:20 18.9 °F 16.1 °F 1013.8 in Calm     84 % 0.0 in 0.0 W/m2 CLR
03:25 18.9 °F 16.2 °F 1013.8 in WSW 13.0 mph 13.0 mph 84 % 0.0 in 0.0 W/m2 CLR
03:30 19.1 °F 16.3 °F 1013.8 in Calm     84 % 0.0 in 0.0 W/m2 CLR
03:35 18.9 °F 16.1 °F 1013.8 in Calm     84 % 0.0 in 0.0 W/m2 CLR
03:40 18.7 °F 15.9 °F 1013.8 in Calm     84 % 0.0 in 0.0 W/m2 CLR
03:45 18.7 °F 16.1 °F 1013.8 in West 11.1 mph 11.1 mph 85 % 0.0 in 0.0 W/m2 CLR
03:50 18.7 °F 16.2 °F 1013.4 in WSW 7.4 mph 7.4 mph 85 % 0.0 in 0.0 W/m2 CLR
03:55 18.7 °F 16.1 °F 1013.4 in WSW 7.4 mph 7.4 mph 85 % 0.0 in 0.0 W/m2 CLR
03:58 18.6 °F 16.0 °F 1013.4 in SW 9.3 mph 9.3 mph 85 % 0.0 in 0.0 W/m2 CLR
04:03 18.4 °F 15.9 °F 1013.4 in WSW 11.1 mph 11.1 mph 85 % 0.0 in 0.0 W/m2 CLR
04:08 18.4 °F 15.8 °F 1013.4 in WSW 6.4 mph 6.4 mph 85 % 0.0 in 0.0 W/m2 CLR
04:13 18.4 °F 15.9 °F 1013.4 in West 9.3 mph 9.3 mph 85 % 0.0 in 0.0 W/m2 CLR
04:18 18.5 °F 15.9 °F 1013.4 in WNW 18.5 mph 18.5 mph 85 % 0.0 in 0.0 W/m2 CLR
04:23 18.7 °F 15.9 °F 1013.4 in West 11.1 mph 11.1 mph 84 % 0.0 in 0.0 W/m2 CLR
04:28 18.8 °F 16.1 °F 1013.4 in West 13.0 mph 13.0 mph 84 % 0.0 in 0.0 W/m2 CLR
04:33 18.8 °F 15.9 °F 1013.4 in WNW 11.1 mph 11.1 mph 83 % 0.0 in 0.0 W/m2 CLR
04:38 18.8 °F 15.9 °F 1013.4 in West 9.3 mph 9.3 mph 83 % 0.0 in 0.0 W/m2 CLR
04:43 18.8 °F 16.0 °F 1013.4 in SW 11.1 mph 11.1 mph 84 % 0.0 in 0.0 W/m2 CLR
04:48 18.6 °F 15.8 °F 1013.1 in WSW 16.7 mph 16.7 mph 84 % 0.0 in 0.0 W/m2 CLR
04:53 18.3 °F 15.8 °F 1013.1 in WSW 9.7 mph 9.7 mph 85 % 0.0 in 0.0 W/m2 CLR
04:58 18.2 °F 15.8 °F 1013.4 in WSW 5.6 mph 5.6 mph 86 % 0.0 in 0.0 W/m2 CLR
05:03 18.3 °F 15.9 °F 1013.1 in West 6.4 mph 6.4 mph 86 % 0.0 in 0.0 W/m2 CLR
05:08 18.3 °F 15.8 °F 1013.4 in WNW 13.0 mph 13.0 mph 85 % 0.0 in 0.0 W/m2 CLR
05:13 18.5 °F 15.9 °F 1013.4 in West 7.4 mph 7.4 mph 85 % 0.0 in 0.0 W/m2 CLR
05:18 18.5 °F 15.7 °F 1013.4 in WSW 5.6 mph 5.6 mph 84 % 0.0 in 0.0 W/m2 CLR
05:23 18.4 °F 15.7 °F 1013.4 in Calm     84 % 0.0 in 0.0 W/m2 CLR
05:28 18.4 °F 15.6 °F 1013.4 in Calm     84 % 0.0 in 0.0 W/m2 CLR
05:33 18.3 °F 15.7 °F 1013.1 in Calm     85 % 0.0 in 0.0 W/m2 CLR
05:38 18.2 °F 15.7 °F 1013.4 in Calm     85 % 0.0 in 0.0 W/m2 CLR
05:43 18.1 °F 15.7 °F 1013.4 in Calm     86 % 0.0 in 0.0 W/m2 CLR
05:48 17.9 °F 15.5 °F 1013.4 in Calm     86 % 0.0 in 0.0 W/m2 CLR
05:53 17.8 °F 15.4 °F 1013.4 in Calm     86 % 0.0 in 0.0 W/m2 CLR
05:58 17.8 °F 15.6 °F 1013.4 in Calm     87 % 0.0 in 0.0 W/m2 CLR
06:03 17.7 °F 15.5 °F 1013.4 in SW 3.7 mph 3.7 mph 87 % 0.0 in 0.0 W/m2 CLR
06:08 17.7 °F 15.5 °F 1013.4 in SW 5.6 mph 5.6 mph 87 % 0.0 in 0.0 W/m2 CLR
06:13 17.6 °F 15.4 °F 1013.4 in Calm     87 % 0.0 in 0.0 W/m2 CLR
06:18 17.5 °F 15.3 °F 1013.4 in Calm     87 % 0.0 in 0.0 W/m2 CLR
06:23 17.5 °F 15.5 °F 1013.4 in Calm     88 % 0.0 in 0.0 W/m2 CLR
06:28 17.6 °F 15.4 °F 1013.4 in Calm     87 % 0.0 in 0.0 W/m2 OVC
06:33 17.6 °F 15.4 °F 1013.8 in Calm     87 % 0.0 in 0.0 W/m2 OVC
06:38 17.7 °F 15.7 °F 1013.4 in West 7.4 mph 7.4 mph 88 % 0.0 in 5.0 W/m2 OVC
06:43 18.1 °F 15.7 °F 1013.8 in West 5.6 mph 5.6 mph 86 % 0.0 in 7.0 W/m2 BKN
06:48 18.4 °F 15.8 °F 1013.4 in Calm     85 % 0.0 in 11.0 W/m2 BKN
06:53 18.6 °F 15.8 °F 1013.8 in Calm     84 % 0.0 in 14.0 W/m2 BKN
06:58 18.5 °F 15.7 °F 1013.8 in Calm     84 % 0.0 in 18.0 W/m2 BKN
07:03 18.1 °F 15.6 °F 1013.8 in Calm     85 % 0.0 in 19.0 W/m2 BKN
07:08 17.9 °F 15.5 °F 1013.8 in Calm     86 % 0.0 in 23.0 W/m2 BKN
07:13 17.8 °F 15.4 °F 1013.8 in Calm     86 % 0.0 in 30.0 W/m2 BKN
07:18 17.8 °F 15.4 °F 1013.8 in Calm     86 % 0.0 in 40.0 W/m2 BKN
07:23 17.8 °F 15.7 °F 1013.8 in Calm     87 % 0.0 in 49.0 W/m2 SCT
07:28 17.9 °F 15.7 °F 1013.8 in Calm     87 % 0.0 in 58.0 W/m2 SCT
07:33 18.1 °F 15.9 °F 1013.8 in Calm     87 % 0.0 in 70.0 W/m2 FEW
07:38 18.2 °F 15.9 °F 1013.8 in Calm     87 % 0.0 in 83.0 W/m2 FEW
07:43 18.3 °F 16.1 °F 1013.8 in Calm     87 % 0.0 in 93.0 W/m2 FEW
07:48 18.4 °F 16.2 °F 1013.8 in Calm     87 % 0.0 in 109.0 W/m2 CLR
07:53 18.7 °F 16.4 °F 1013.8 in Calm     87 % 0.0 in 120.0 W/m2 CLR
07:58 18.9 °F 16.5 °F 1013.8 in NNW 6.4 mph 6.4 mph 86 % 0.0 in 139.0 W/m2 CLR
08:03 19.2 °F 16.6 °F 1013.8 in WNW 6.4 mph 6.4 mph 85 % 0.0 in 149.0 W/m2 CLR
08:08 19.5 °F 16.6 °F 1013.8 in WNW 7.4 mph 7.4 mph 83 % 0.0 in 158.0 W/m2 CLR
08:13 19.7 °F 16.8 °F 1013.8 in Calm     83 % 0.0 in 181.0 W/m2 CLR
08:18 19.9 °F 16.8 °F 1013.8 in Calm     82 % 0.0 in 204.0 W/m2 CLR
08:23 20.2 °F 16.8 °F 1013.8 in Calm     81 % 0.0 in 220.0 W/m2 CLR
08:24 20.3 °F 16.9 °F 1013.8 in Calm     81 % 0.0 in 220.0 W/m2 CLR
08:29 20.4 °F 16.7 °F 1013.8 in West 13.0 mph 13.0 mph 79 % 0.0 in 232.0 W/m2 CLR
08:34 20.6 °F 16.8 °F 1013.8 in NW 9.3 mph 9.3 mph 79 % 0.0 in 248.0 W/m2 CLR
08:35 20.6 °F 16.8 °F 1013.8 in WNW 11.1 mph 11.1 mph 79 % 0.0 in 255.0 W/m2 CLR
08:39 20.7 °F 16.5 °F 1013.8 in WNW 11.1 mph 11.1 mph 77 % 0.0 in 267.0 W/m2 CLR
08:44 20.8 °F 16.8 °F 1013.8 in NW 9.7 mph 9.7 mph 78 % 0.0 in 283.0 W/m2 CLR
08:49 20.9 °F 16.7 °F 1013.8 in NW 5.6 mph   77 % 0.0 in 301.0 W/m2 CLR
08:54 21.1 °F 16.7 °F 1013.8 in Calm     76 % 0.0 in 315.0 W/m2 CLR
08:59 21.2 °F 16.6 °F 1013.8 in WNW 16.7 mph 16.7 mph 75 % 0.0 in 330.0 W/m2 CLR
09:04 21.3 °F 16.9 °F 1013.8 in NW 11.1 mph 11.1 mph 76 % 0.0 in 345.0 W/m2 CLR
09:09 21.4 °F 16.6 °F 1013.8 in NW 9.3 mph 9.3 mph 74 % 0.0 in 362.0 W/m2 CLR
09:14 21.6 °F 17.0 °F 1013.8 in NNW 6.4 mph 6.4 mph 75 % 0.0 in 376.0 W/m2 CLR
09:19 21.7 °F 16.9 °F 1013.8 in NW 3.2 mph 3.2 mph 74 % 0.0 in 390.0 W/m2 CLR
09:24 21.9 °F 16.8 °F 1013.8 in NW 16.1 mph 16.1 mph 73 % 0.0 in 406.0 W/m2 CLR
09:29 21.9 °F 16.7 °F 1013.8 in NW 20.4 mph 20.4 mph 72 % 0.0 in 418.0 W/m2 CLR
09:34 22.1 °F 16.8 °F 1013.8 in NW 11.3 mph 11.3 mph 72 % 0.0 in 434.0 W/m2 CLR
09:39 22.3 °F 17.2 °F 1013.8 in NW 11.1 mph 11.1 mph 73 % 0.0 in 452.0 W/m2 CLR
09:44 22.4 °F 16.7 °F 1013.8 in NW 11.1 mph 11.1 mph 70 % 0.0 in 468.0 W/m2 CLR
09:49 22.6 °F 16.8 °F 1013.8 in North 14.8 mph 14.8 mph 70 % 0.0 in 482.0 W/m2 CLR
09:54 22.7 °F 16.9 °F 1013.8 in NW 13.0 mph 13.0 mph 70 % 0.0 in 504.0 W/m2 CLR
09:59 22.7 °F 16.9 °F 1013.8 in NW 18.5 mph 18.5 mph 70 % 0.0 in 515.0 W/m2 CLR
10:04 22.7 °F 16.4 °F 1013.8 in NW 14.5 mph 14.5 mph 68 % 0.0 in 297.0 W/m2 CLR
10:09 22.8 °F 17.0 °F 1013.8 in NNW 11.1 mph 11.1 mph 70 % 0.0 in 545.0 W/m2 CLR
10:14 22.8 °F 16.6 °F 1013.8 in NW 18.5 mph 18.5 mph 68 % 0.0 in 559.0 W/m2 CLR
10:19 23.0 °F 16.8 °F 1013.8 in NW 14.8 mph 14.8 mph 68 % 0.0 in 598.0 W/m2 CLR
10:24 23.1 °F 16.9 °F 1013.8 in West 14.8 mph 14.8 mph 68 % 0.0 in 613.0 W/m2 CLR
10:29 23.4 °F 17.4 °F 1013.8 in NW 13.0 mph 13.0 mph 69 % 0.0 in 598.0 W/m2 CLR
10:34 23.4 °F 17.4 °F 1013.8 in NNW 29.6 mph 29.6 mph 69 % 0.0 in 605.0 W/m2 CLR
10:39 23.4 °F 17.2 °F 1013.8 in NNW 14.8 mph 14.8 mph 68 % 0.0 in 628.0 W/m2 CLR
10:44 23.5 °F 17.0 °F 1013.8 in WNW 12.9 mph 12.9 mph 67 % 0.0 in 636.0 W/m2 CLR
10:49 23.6 °F 16.9 °F 1013.8 in NW 25.9 mph 25.9 mph 66 % 0.0 in 654.0 W/m2 CLR
10:54 23.7 °F 16.7 °F 1013.8 in WNW 14.5 mph 14.5 mph 65 % 0.0 in 598.0 W/m2 CLR
10:59 23.8 °F 16.8 °F 1013.8 in WNW 18.5 mph 18.5 mph 65 % 0.0 in 715.0 W/m2 CLR
11:04 23.8 °F 17.1 °F 1013.8 in NNW 11.1 mph 11.1 mph 66 % 0.0 in 721.0 W/m2 CLR
11:10 24.1 °F 17.3 °F 1013.8 in NNW 16.1 mph 16.1 mph 66 % 0.0 in 766.0 W/m2 CLR
11:14 24.1 °F 17.3 °F 1013.8 in NNW 17.7 mph 17.7 mph 66 % 0.0 in 450.0 W/m2 CLR
11:20 24.2 °F 17.4 °F 1013.8 in NNW 18.5 mph 18.5 mph 66 % 0.0 in 795.0 W/m2 CLR
11:25 24.2 °F 17.0 °F 1013.8 in NNW 16.7 mph 16.7 mph 64 % 0.0 in 863.0 W/m2 CLR
11:30 24.4 °F 17.4 °F 1013.8 in NNW 16.7 mph 16.7 mph 65 % 0.0 in 904.0 W/m2 CLR
11:35 24.2 °F 17.0 °F 1013.8 in NW 11.1 mph 11.1 mph 64 % 0.0 in 826.0 W/m2 CLR
11:40 24.3 °F 17.8 °F 1013.8 in NNW 13.0 mph 13.0 mph 67 % 0.0 in 796.0 W/m2 CLR
11:45 24.5 °F 17.2 °F 1013.8 in NNW 16.7 mph 16.7 mph 64 % 0.0 in 847.0 W/m2 CLR
11:50 24.6 °F 17.3 °F 1013.8 in NW 18.5 mph 18.5 mph 64 % 0.0 in 953.0 W/m2 CLR
11:55 24.5 °F 17.5 °F 1014.1 in Calm     65 % 0.0 in 264.0 W/m2 CLR
11:56 24.6 °F 17.3 °F 1014.1 in Calm     64 % 0.0 in 243.0 W/m2 CLR
12:01 24.4 °F 17.4 °F 1014.1 in NNW 19.3 mph 19.3 mph 65 % 0.0 in 221.0 W/m2 CLR
12:06 24.1 °F 16.9 °F 1014.1 in NNW 9.3 mph 9.3 mph 64 % 0.0 in 236.0 W/m2 CLR
12:11 24.2 °F 16.9 °F 1014.1 in NW 18.5 mph 18.5 mph 64 % 0.0 in 197.0 W/m2 CLR
12:16 24.6 °F 17.6 °F 1013.8 in WNW 14.8 mph 14.8 mph 65 % 0.0 in 914.0 W/m2 CLR
12:21 25.1 °F 17.5 °F 1013.8 in NW 18.5 mph 18.5 mph 63 % 0.0 in 902.0 W/m2 CLR
12:26 25.3 °F 17.5 °F 1013.8 in NW 14.8 mph 14.8 mph 62 % 0.0 in 879.0 W/m2 CLR
12:31 25.3 °F 17.5 °F 1013.8 in WNW 16.1 mph 16.1 mph 62 % 0.0 in 875.0 W/m2 CLR
12:36 25.3 °F 17.8 °F 1013.8 in NNW 24.1 mph 24.1 mph 63 % 0.0 in 972.0 W/m2 CLR
12:41 25.3 °F 17.5 °F 1013.8 in Calm     62 % 0.0 in 942.0 W/m2 CLR
12:46 25.4 °F 17.4 °F 1013.8 in NW 7.4 mph 7.4 mph 61 % 0.0 in 928.0 W/m2 CLR
12:51 25.5 °F 17.4 °F 1013.8 in NW 16.1 mph 16.1 mph 61 % 0.0 in 937.0 W/m2 CLR
12:56 25.7 °F 17.6 °F 1013.8 in NW 20.9 mph 20.9 mph 61 % 0.0 in 969.0 W/m2 CLR
13:01 26.1 °F 16.9 °F 1013.4 in West 18.5 mph 18.5 mph 57 % 0.0 in 944.0 W/m2 CLR
13:06 26.1 °F 16.7 °F 1013.4 in WNW 16.7 mph 16.7 mph 56 % 0.0 in 940.0 W/m2 CLR
13:11 26.3 °F 17.6 °F 1013.4 in NNW 18.5 mph 18.5 mph 59 % 0.0 in 963.0 W/m2 CLR
13:16 26.3 °F 17.1 °F 1013.4 in Calm     57 % 0.0 in 962.0 W/m2 CLR
13:21 26.6 °F 17.1 °F 1013.4 in WNW 25.9 mph 25.9 mph 56 % 0.0 in 981.0 W/m2 CLR
13:26 26.3 °F 16.3 °F 1013.4 in WNW 13.0 mph 13.0 mph 54 % 0.0 in 279.0 W/m2 CLR
13:31 26.3 °F 16.8 °F 1013.4 in West 24.1 mph 24.1 mph 56 % 0.0 in 986.0 W/m2 CLR
13:36 26.7 °F 16.9 °F 1013.4 in NW 20.9 mph 20.9 mph 55 % 0.0 in 986.0 W/m2 CLR
13:41 26.8 °F 16.7 °F 1013.1 in NW 18.5 mph 18.5 mph 54 % 0.0 in 262.0 W/m2 CLR
13:46 26.8 °F 17.1 °F 1013.1 in NW 11.1 mph 11.1 mph 55 % 0.0 in 1099.0 W/m2 CLR
13:51 26.8 °F 17.0 °F 1013.1 in NW 22.2 mph 22.2 mph 55 % 0.0 in 1088.0 W/m2 CLR
13:56 26.8 °F 17.0 °F 1013.1 in NNE 14.8 mph 14.8 mph 55 % 0.0 in 1088.0 W/m2 CLR
14:01 26.7 °F 16.7 °F 1013.1 in NW 3.7 mph 3.7 mph 54 % 0.0 in 193.0 W/m2 CLR
14:06 26.9 °F 17.7 °F 1013.1 in NW 20.9 mph 20.9 mph 57 % 0.0 in 1004.0 W/m2 CLR
14:11 26.9 °F 17.1 °F 1013.1 in NW 17.7 mph 17.7 mph 55 % 0.0 in 1065.0 W/m2 CLR
14:16 27.3 °F 16.8 °F 1013.1 in NW 20.4 mph 20.4 mph 53 % 0.0 in 1016.0 W/m2 CLR
14:21 27.7 °F 17.2 °F 1013.1 in North 19.3 mph 19.3 mph 53 % 0.0 in 984.0 W/m2 CLR
14:26 27.8 °F 17.4 °F 1012.8 in North 18.5 mph 18.5 mph 53 % 0.0 in 990.0 W/m2 CLR
14:31 27.8 °F 17.4 °F 1012.8 in NNW 16.7 mph 16.7 mph 53 % 0.0 in 1002.0 W/m2 CLR
14:36 27.8 °F 17.1 °F 1012.8 in NNW 16.7 mph 16.7 mph 52 % 0.0 in 951.0 W/m2 CLR
14:41 27.7 °F 16.7 °F 1012.8 in West 22.2 mph 22.2 mph 51 % 0.0 in 946.0 W/m2 CLR
14:46 27.9 °F 17.4 °F 1012.8 in NW 20.4 mph 20.4 mph 53 % 0.0 in 965.0 W/m2 CLR
14:51 28.3 °F 16.9 °F 1012.8 in NW 18.5 mph 18.5 mph 50 % 0.0 in 937.0 W/m2 CLR
14:56 28.4 °F 17.3 °F 1012.8 in NW 18.5 mph 18.5 mph 51 % 0.0 in 921.0 W/m2 CLR
15:02 28.4 °F 16.3 °F 1012.4 in NW 24.1 mph 24.1 mph 48 % 0.0 in 926.0 W/m2 CLR
15:07 28.6 °F 16.5 °F 1012.4 in NNW 33.3 mph 33.3 mph 48 % 0.0 in 969.0 W/m2 CLR
15:12 28.6 °F 16.2 °F 1012.4 in NNW 24.1 mph 24.1 mph 47 % 0.0 in 1000.0 W/m2 CLR
15:17 28.4 °F 17.0 °F 1012.4 in North 22.2 mph 22.2 mph 50 % 0.0 in 960.0 W/m2 CLR
15:22 28.4 °F 17.0 °F 1012.4 in NW 18.5 mph 18.5 mph 50 % 0.0 in 939.0 W/m2 CLR
15:27 28.9 °F 17.1 °F 1012.4 in NW 14.8 mph 14.8 mph 49 % 0.0 in 967.0 W/m2 CLR
15:32 29.0 °F 16.9 °F 1012.4 in WNW 20.4 mph 20.4 mph 48 % 0.0 in 921.0 W/m2 CLR
15:37 28.9 °F 16.8 °F 1012.4 in NNW 14.8 mph 14.8 mph 48 % 0.0 in 993.0 W/m2 CLR
15:42 28.9 °F 16.8 °F 1012.4 in NNW 24.1 mph 24.1 mph 48 % 0.0 in 939.0 W/m2 CLR
15:47 29.2 °F 17.4 °F 1012.4 in NW 18.5 mph 18.5 mph 49 % 0.0 in 930.0 W/m2 CLR
15:52 28.9 °F 17.5 °F 1012.4 in NNW 18.5 mph 18.5 mph 50 % 0.0 in 190.0 W/m2 CLR
15:57 29.2 °F 16.7 °F 1012.4 in NNW 20.4 mph 20.4 mph 47 % 0.0 in 863.0 W/m2 CLR
16:02 29.3 °F 16.8 °F 1012.4 in NNE 18.5 mph 18.5 mph 47 % 0.0 in 830.0 W/m2 CLR
16:07 29.3 °F 17.5 °F 1012.4 in WNW 6.4 mph 6.4 mph 49 % 0.0 in 840.0 W/m2 CLR
16:12 29.6 °F 17.1 °F 1012.4 in NNW 9.3 mph 9.3 mph 47 % 0.0 in 821.0 W/m2 CLR
16:17 29.7 °F 16.4 °F 1012.4 in WNW 18.5 mph 18.5 mph 45 % 0.0 in 849.0 W/m2 CLR
16:22 29.9 °F 17.0 °F 1012.1 in NNW 16.1 mph 16.1 mph 46 % 0.0 in 796.0 W/m2 CLR
16:27 30.0 °F 16.4 °F 1012.1 in NNW 22.2 mph 22.2 mph 44 % 0.0 in 789.0 W/m2 CLR
16:32 29.8 °F 16.6 °F 1012.1 in WNW 11.1 mph 11.1 mph 45 % 0.0 in 777.0 W/m2 CLR
16:37 29.8 °F 16.3 °F 1012.1 in North 14.8 mph 14.8 mph 44 % 0.0 in 789.0 W/m2 CLR
16:42 29.9 °F 15.9 °F 1012.1 in North 13.0 mph 13.0 mph 43 % 0.0 in 759.0 W/m2 CLR
16:47 29.9 °F 16.4 °F 1012.1 in North 9.3 mph   44 % 0.0 in 745.0 W/m2 CLR
16:52 30.2 °F 16.6 °F 1012.1 in WNW 22.2 mph 22.2 mph 44 % 0.0 in 728.0 W/m2 CLR
16:57 30.0 °F 16.8 °F 1012.1 in NW 12.9 mph 12.9 mph 45 % 0.0 in 719.0 W/m2 CLR
17:02 30.2 °F 15.8 °F 1012.1 in NW 20.4 mph 20.4 mph 42 % 0.0 in 700.0 W/m2 CLR
17:07 30.2 °F 16.2 °F 1011.7 in North 25.9 mph 25.9 mph 43 % 0.0 in 689.0 W/m2 CLR
17:12 30.1 °F 16.2 °F 1012.1 in NNE 18.5 mph 18.5 mph 43 % 0.0 in 675.0 W/m2 CLR
17:17 30.1 °F 16.1 °F 1012.1 in Calm     43 % 0.0 in 666.0 W/m2 CLR
17:22 30.2 °F 15.8 °F 1012.1 in Calm     42 % 0.0 in 652.0 W/m2 CLR
17:27 30.4 °F 16.4 °F 1011.7 in NW 18.5 mph 18.5 mph 43 % 0.0 in 642.0 W/m2 CLR
17:32 30.4 °F 15.7 °F 1011.7 in Calm     41 % 0.0 in 626.0 W/m2 CLR
17:42 30.7 °F 15.9 °F 1011.7 in NW 5.6 mph 5.6 mph 41 % 0.0 in 601.0 W/m2 CLR
17:47 30.8 °F 16.4 °F 1011.7 in NNW 9.3 mph 9.3 mph 42 % 0.0 in 582.0 W/m2 CLR
17:52 30.7 °F 16.3 °F 1011.7 in NNE 9.3 mph 9.3 mph 42 % 0.0 in 575.0 W/m2 CLR
17:57 30.8 °F 16.1 °F 1011.4 in NE 7.4 mph 7.4 mph 41 % 0.0 in 559.0 W/m2 CLR
18:02 30.7 °F 15.9 °F 1011.4 in Calm     41 % 0.0 in 545.0 W/m2 CLR
18:07 31.0 °F 15.8 °F 1011.4 in NNW 11.3 mph 11.3 mph 40 % 0.0 in 531.0 W/m2 CLR
18:12 30.8 °F 15.7 °F 1011.4 in NNW 9.3 mph 9.3 mph 40 % 0.0 in 512.0 W/m2 CLR
18:17 30.9 °F 16.1 °F 1011.4 in NW 11.1 mph 11.1 mph 41 % 0.0 in 499.0 W/m2 CLR
18:22 31.0 °F 15.8 °F 1011.4 in NW 7.4 mph 7.4 mph 40 % 0.0 in 487.0 W/m2 CLR
18:27 31.2 °F 16.0 °F 1011.1 in North 11.3 mph 11.3 mph 40 % 0.0 in 471.0 W/m2 CLR
18:32 31.1 °F 15.9 °F 1011.1 in Calm     40 % 0.0 in 454.0 W/m2 CLR
18:37 31.2 °F 15.2 °F 1011.1 in NNW 5.6 mph 5.6 mph 38 % 0.0 in 441.0 W/m2 CLR
18:42 31.2 °F 15.6 °F 1011.1 in NW 11.1 mph 11.1 mph 39 % 0.0 in 425.0 W/m2 CLR
18:47 31.2 °F 15.2 °F 1011.1 in North 9.3 mph 9.3 mph 38 % 0.0 in 410.0 W/m2 CLR
18:52 31.2 °F 15.2 °F 1011.1 in Calm     38 % 0.0 in 396.0 W/m2 CLR
18:57 31.2 °F 15.2 °F 1011.1 in North 11.1 mph 11.1 mph 38 % 0.0 in 378.0 W/m2 CLR
19:02 31.2 °F 14.8 °F 1011.1 in NNW 11.1 mph 11.1 mph 37 % 0.0 in 366.0 W/m2 CLR
19:07 31.2 °F 14.8 °F 1011.1 in North 8.0 mph 8.0 mph 37 % 0.0 in 352.0 W/m2 CLR
19:12 31.1 °F 15.1 °F 1011.1 in North 1.9 mph 1.9 mph 38 % 0.0 in 334.0 W/m2 CLR
19:17 31.2 °F 15.2 °F 1011.1 in NNE 1.9 mph 1.9 mph 38 % 0.0 in 316.0 W/m2 CLR
19:22 31.3 °F 14.8 °F 1011.1 in North 5.6 mph 5.6 mph 37 % 0.0 in 302.0 W/m2 CLR
19:27 31.3 °F 14.5 °F 1011.1 in NNW 9.3 mph 9.3 mph 36 % 0.0 in 288.0 W/m2 CLR
19:32 31.3 °F 14.8 °F 1011.1 in NNW 5.6 mph 5.6 mph 37 % 0.0 in 271.0 W/m2 CLR
19:37 31.4 °F 14.5 °F 1011.1 in North 11.1 mph 11.1 mph 36 % 0.0 in 255.0 W/m2 CLR
19:42 31.1 °F 14.7 °F 1011.1 in NNW 9.3 mph 9.3 mph 37 % 0.0 in 239.0 W/m2 CLR
19:47 31.2 °F 14.3 °F 1011.1 in NNE 9.3 mph 9.3 mph 36 % 0.0 in 223.0 W/m2 CLR
19:52 31.0 °F 14.2 °F 1011.1 in North 7.4 mph 7.4 mph 36 % 0.0 in 206.0 W/m2 CLR
19:57 31.0 °F 14.2 °F 1011.1 in Calm     36 % 0.0 in 190.0 W/m2 CLR
20:02 31.2 °F 14.3 °F 1010.7 in Calm     36 % 0.0 in 174.0 W/m2 CLR
20:07 31.2 °F 14.4 °F 1010.7 in Calm     36 % 0.0 in 158.0 W/m2 CLR
20:12 31.3 °F 14.9 °F 1011.1 in Calm     37 % 0.0 in 142.0 W/m2 CLR
20:17 31.3 °F 14.8 °F 1010.7 in Calm     37 % 0.0 in 125.0 W/m2 CLR
20:22 31.2 °F 14.8 °F 1010.7 in Calm     37 % 0.0 in 111.0 W/m2 CLR
20:27 30.9 °F 14.5 °F 1010.7 in NNE 1.9 mph   37 % 0.0 in 97.0 W/m2 CLR
20:32 30.7 °F 15.2 °F 1010.7 in Calm     39 % 0.0 in 84.0 W/m2 CLR
20:37 30.5 °F 14.6 °F 1010.7 in Calm     38 % 0.0 in 70.0 W/m2 FEW
20:42 30.4 °F 14.5 °F 1010.7 in Calm     38 % 0.0 in 60.0 W/m2 SCT
20:47 30.3 °F 14.8 °F 1010.7 in Calm     39 % 0.0 in 51.0 W/m2 SCT
20:52 30.2 °F 14.7 °F 1010.7 in Calm     39 % 0.0 in 35.0 W/m2 BKN
20:57 30.0 °F 14.6 °F 1010.7 in Calm     39 % 0.0 in 28.0 W/m2 BKN
21:02 29.8 °F 14.8 °F 1010.7 in Calm     40 % 0.0 in 26.0 W/m2 BKN
21:07 29.7 °F 14.6 °F 1010.7 in Calm     40 % 0.0 in 21.0 W/m2 BKN
21:12 29.4 °F 14.8 °F 1010.7 in Calm     41 % 0.0 in 18.0 W/m2 BKN
21:17 29.1 °F 15.6 °F 1010.7 in Calm     44 % 0.0 in 14.0 W/m2 BKN
21:22 28.7 °F 15.6 °F 1011.1 in Calm     45 % 0.0 in 11.0 W/m2 BKN
21:27 28.4 °F 15.7 °F 1010.7 in Calm     46 % 0.0 in 7.0 W/m2 BKN
21:32 28.1 °F 15.4 °F 1011.1 in Calm     46 % 0.0 in 5.0 W/m2 OVC
21:38 27.9 °F 15.2 °F 1011.1 in Calm     46 % 0.0 in 0.0 W/m2 OVC
21:43 27.8 °F 15.8 °F 1011.1 in Calm     48 % 0.0 in 0.0 W/m2 OVC
21:47 27.7 °F 15.7 °F 1011.1 in Calm     48 % 0.0 in 0.0 W/m2 CLR
21:53 27.4 °F 16.1 °F 1011.1 in Calm     50 % 0.0 in 0.0 W/m2 CLR
21:58 26.9 °F 15.3 °F 1011.1 in Calm     49 % 0.0 in 0.0 W/m2 CLR
22:03 26.7 °F 16.7 °F 1011.1 in Calm     54 % 0.0 in 0.0 W/m2 CLR
22:08 26.5 °F 17.0 °F 1011.4 in Calm     56 % 0.0 in 0.0 W/m2 CLR
22:13 26.1 °F 15.4 °F 1011.4 in Calm     52 % 0.0 in 0.0 W/m2 CLR
22:18 26.1 °F 15.4 °F 1011.4 in Calm     52 % 0.0 in 0.0 W/m2 CLR
22:23 26.1 °F 16.3 °F 1011.4 in Calm     55 % 0.0 in 0.0 W/m2 CLR
22:28 25.8 °F 16.9 °F 1011.4 in Calm     58 % 0.0 in 0.0 W/m2 CLR
22:33 25.6 °F 16.2 °F 1011.4 in Calm     56 % 0.0 in 0.0 W/m2 CLR
22:38 25.5 °F 16.3 °F 1011.7 in Calm     57 % 0.0 in 0.0 W/m2 CLR
22:43 25.4 °F 16.0 °F 1011.7 in Calm     56 % 0.0 in 0.0 W/m2 CLR
22:48 25.2 °F 16.4 °F 1011.7 in Calm     58 % 0.0 in 0.0 W/m2 CLR
22:53 25.1 °F 15.9 °F 1011.7 in Calm     57 % 0.0 in 0.0 W/m2 CLR
22:58 24.9 °F 15.8 °F 1011.7 in Calm     57 % 0.0 in 0.0 W/m2 CLR
23:03 25.0 °F 15.9 °F 1011.7 in Calm     57 % 0.0 in 0.0 W/m2 CLR
23:08 25.0 °F 16.2 °F 1011.7 in Calm     58 % 0.0 in 0.0 W/m2 CLR
23:13 24.8 °F 16.3 °F 1011.7 in Calm     59 % 0.0 in 0.0 W/m2 CLR
23:18 24.6 °F 16.1 °F 1011.7 in Calm     59 % 0.0 in 0.0 W/m2 CLR
23:23 24.5 °F 15.9 °F 1011.7 in Calm     59 % 0.0 in 0.0 W/m2 CLR
23:28 24.4 °F 15.9 °F 1011.7 in Calm     59 % 0.0 in 0.0 W/m2 CLR
23:33 24.4 °F 16.9 °F 1011.7 in Calm     63 % 0.0 in 0.0 W/m2 CLR
23:38 24.2 °F 16.4 °F 1011.7 in Calm     62 % 0.0 in 0.0 W/m2 CLR
23:43 24.0 °F 16.0 °F 1011.7 in Calm     61 % 0.0 in 0.0 W/m2 CLR
23:48 24.1 °F 16.6 °F 1012.1 in Calm     63 % 0.0 in 0.0 W/m2 CLR
23:53 24.1 °F 16.1 °F 1011.7 in Calm     61 % 0.0 in 0.0 W/m2 CLR
23:58 24.2 °F 15.9 °F 1011.7 in Calm     60 % 0.0 in 0.0 W/m2 CLR
Lo Temps de Massalio
Compliments of Weather Underground - 1.25 mb